WetterOnline ( http://www.wetteronline.de )

Wetter aktuell Prag

Aktuelles Wetter: Prag-Kbely (287m)

6-stündlich | Neueste Meldungen
Ortszeit Temperatur Wetter
So, 20.01. 1:00 -6.2° C wolkenlos
Sa, 19.01. 19:00 -5.4° C wolkenlos
Sa, 19.01. 13:00 -2.3° C leicht bewölkt
Sa, 19.01. 7:00 -7.5° C leicht bewölkt
Sa, 19.01. 1:00 -6.2° C wolkenlos
Fr, 18.01. 19:00 -3.6° C wolkenlos
Fr, 18.01. 13:00 0.6° C wolkig
Fr, 18.01. 7:00 0.4° C wolkig
Ortszeit Temperatur Wetter
So, 20.01. 6:00 -5° C bedeckt
So, 20.01. 5:00 -5.0° C bedeckt
So, 20.01. 4:00 -5.1° C bedeckt
So, 20.01. 3:00 -5.5° C bedeckt
So, 20.01. 2:00 -6.2° C wolkig
So, 20.01. 1:00 -6.2° C wolkenlos
Ortszeit Relative Feuchte Sichtweite
So, 20.01. 1:00 88% 10 km
Sa, 19.01. 19:00 85% 15 km
Sa, 19.01. 13:00 77% 8 km
Sa, 19.01. 7:00 91% 10 km
Sa, 19.01. 1:00 86% 15 km
Fr, 18.01. 19:00 73% 25 km
Fr, 18.01. 13:00 56% 25 km
Fr, 18.01. 7:00 78% 25 km
Ortszeit Relative Feuchte Sichtweite
So, 20.01. 6:00 86% >10 km
So, 20.01. 5:00 87% 10 km
So, 20.01. 4:00 88% 10 km
So, 20.01. 3:00 88% 10 km
So, 20.01. 2:00 88% 10 km
So, 20.01. 1:00 88% 10 km
Ortszeit Niederschlagsmenge Niederschlagsart
So, 20.01. 1:00 0.0 l/m2 in 6 Std. -
Sa, 19.01. 19:00 0.0 l/m2 in 12 Std. -
Sa, 19.01. 13:00 0.0 l/m2 in 6 Std. -
Sa, 19.01. 7:00 0.0 l/m2 in 12 Std. -
Sa, 19.01. 1:00 0.0 l/m2 in 6 Std. -
Fr, 18.01. 19:00 0.1 l/m2 in 12 Std. -
Fr, 18.01. 13:00 0.1 l/m2 in 6 Std. Schauer
Fr, 18.01. 7:00 0.5 l/m2 in 12 Std. Schnee
Ortszeit Niederschlagsmenge Niederschlagsart
So, 20.01. 6:00 keine Meldung -
So, 20.01. 5:00 0.0 l/m2 in 1 Std. -
So, 20.01. 4:00 0.0 l/m2 in 1 Std. -
So, 20.01. 3:00 0.0 l/m2 in 1 Std. -
So, 20.01. 2:00 0.0 l/m2 in 1 Std. -
So, 20.01. 1:00 0.0 l/m2 in 1 Std. -
Ortszeit Stärke Spitze Richtung
km/h Bft. km/h Grad Sektor
So, 20.01. 1:00 11 2 - 70° O
Sa, 19.01. 19:00 11 2 - 80° O
Sa, 19.01. 13:00 11 2 - 50° NO
Sa, 19.01. 7:00 4 1 - 210° SW
Sa, 19.01. 1:00 7 2 - 190° S
Fr, 18.01. 19:00 4 1 - 170° S
Fr, 18.01. 13:00 22 4 40 280° W
Fr, 18.01. 7:00 18 3 54 240° SW
Ortszeit Stärke Spitze Richtung
km/h Bft. km/h Grad Sektor
So, 20.01. 6:00 4 1 - uml. uml.
So, 20.01. 5:00 4 1 - 20° N
So, 20.01. 4:00 4 1 - 20° N
So, 20.01. 3:00 4 1 - 60° NO
So, 20.01. 2:00 4 1 - 80° O
So, 20.01. 1:00 11 2 - 70° O
Ortszeit Untergrenze Bedeckung Gattung
total tief tief mittel hoch
So, 20.01. 1:00 - 0/8 0/8 - - -
Sa, 19.01. 19:00 - 0/8 0/8 - - -
Sa, 19.01. 13:00 6600 m 2/8 0/8 - - Ci
Sa, 19.01. 7:00 6900 m 5/8 0/8 - - Ci
Sa, 19.01. 1:00 - 0/8 0/8 - - -
Fr, 18.01. 19:00 - 0/8 0/8 - - -
Fr, 18.01. 13:00 750 m 5/8 5/8 Cu - -
Fr, 18.01. 7:00 1110 m 6/8 6/8 Sc - -
Ortszeit Bedeckungsgrad in Achtel und Wolkenuntergrenze
So, 20.01. 6:00 8(720m)
So, 20.01. 5:00 8(750m)
So, 20.01. 4:00 8(780m)
So, 20.01. 3:00 8(750m)
So, 20.01. 2:00 6(750m)
So, 20.01. 1:00 keine Wolken
Ortszeit Luftdruck NN (hPa) Tendenz (hPa in 3 Std.)
So, 20.01. 1:00 1019 - 0,8
Sa, 19.01. 19:00 1020 - 0,6
Sa, 19.01. 13:00 1022 - 1,3
Sa, 19.01. 7:00 1023 - 0,1
Sa, 19.01. 1:00 1024 - 0,1
Fr, 18.01. 19:00 1023 + 0,9
Fr, 18.01. 13:00 1020 + 2,2
Fr, 18.01. 7:00 1013 + 2,2
Ortszeit Luftdruck NN (hPa) Tendenz (hPa in 3 Std.)
So, 20.01. 6:00 1015 keine Meldung
So, 20.01. 5:00 1018 - 0,8
So, 20.01. 4:00 1018 - 0,8
So, 20.01. 3:00 1019 - 0,9
So, 20.01. 2:00 1019 - 0,7
So, 20.01. 1:00 1019 - 0,8
Ortszeit Schneehöhe (cm)
So, 20.01. 1:00 -
Sa, 19.01. 19:00 -
Sa, 19.01. 13:00 -
Sa, 19.01. 7:00 -
Sa, 19.01. 1:00 -
Fr, 18.01. 19:00 -
Fr, 18.01. 13:00 -
Fr, 18.01. 7:00 0
Ortszeit Schneehöhe (cm)
So, 20.01. 6:00 -
So, 20.01. 5:00 -
So, 20.01. 4:00 -
So, 20.01. 3:00 -
So, 20.01. 2:00 -
So, 20.01. 1:00 -
Link zu dieser Seite / Seite empfehlen

Das Wetter in ...